Flag for Kazakhstan Weather past 2 weeks in Astana, Kazakhstan

Now
-29 °F

Clear.


Feels Like: -41 °F
Forecast: -33 / -11 °F
Wind: 3 mph from East

Location: Astana

Current Time: Jan 26, 2015 at 2:43:26 AM

Latest Report: Jan 26, 2015 at 2:00 AM


Visibility: 4 mi

Pressure: 30.83 "Hg

Humidity: 60%

Dew point: -38 °F

Location of AstanaLocation

Historic Weather in Astana — Graph

°F

Astana temperature yesterday

Maximum temperature yesterday: -17 °F (at 3:30 PM)
Minimum temperature yesterday: -35 °F (at 2:30 AM)
Average temperature yesterday: -27 °F

Past Weeks' High & Low Weather Summary

 TemperatureHumidityPressure
High30 °F (Jan 16, 2:30 PM)100% (Jan 16, 4:30 AM)30.89 "Hg (Jan 16, 4:30 AM)
Low-35 °F (Jan 25, 2:30 AM)60% (Jan 24, 2:00 AM)29.83 "Hg (Jan 20, 10:30 PM)
Average6 °F82%30.23 "Hg
* Reported Jan 11 1:00 AM — Jan 26 1:30 AM, Astana, Weather by CustomWeather, © 2014

Note: Actual official high and low records may vary slightly from our data, if they occured in-between our weather recording intervals... More about our weather records

Advertising

Astana weather history for previous 24 hours

 ConditionsComfort  
Time TempWeatherWind HumidityBarometerVisibility
1:30 AM
Jan 26
-29 °FClear.3 mph60%30.83 "Hg4 mi
1:00 AM-26 °FClear.1 mph67%30.83 "Hg10 mi
12:30 AM-27 °FClear.1 mph67%30.86 "Hg6 mi
12:00 AM-31 °FClear.3 mph67%30.86 "Hg10 mi
11:30 PM
Jan 25
-27 °FClear.3 mph61%30.86 "Hg10 mi
11:00 PM-26 °FClear.3 mph67%30.86 "Hg10 mi
10:30 PM-26 °FClear.3 mph67%30.86 "Hg10 mi
10:00 PM-27 °FClear.3 mph67%30.86 "Hg10 mi
9:30 PM-27 °FClear.3 mph67%30.86 "Hg10 mi
9:00 PM-27 °FClear.3 mph67%30.86 "Hg10 mi
8:30 PM-26 °FClear.8 mph67%30.86 "Hg6 mi
8:00 PM-26 °FClear.8 mph67%30.86 "Hg6 mi
7:30 PM-26 °FClear.8 mph67%30.89 "Hg10 mi
7:00 PM-26 °FClear.8 mph67%30.89 "Hg10 mi
6:30 PM-24 °FSunny.6 mph68%30.89 "Hg10 mi
6:00 PM-22 °FSunny.3 mph68%30.89 "Hg10 mi
5:30 PM-20 °FSunny.3 mph75%30.89 "Hg10 mi
5:00 PM-18 °FSunny.6 mph69%30.89 "Hg10 mi
4:30 PM-18 °FSunny.6 mph75%30.86 "Hg10 mi
4:00 PM-18 °FSunny.6 mph75%30.86 "Hg10 mi
3:30 PM-17 °FSunny.6 mph69%30.86 "Hg10 mi
3:00 PM-18 °FSunny.3 mph69%30.86 "Hg10 mi
2:30 PM-18 °FSunny.6 mph69%30.86 "Hg10 mi
2:00 PM-20 °FSunny.3 mph68%30.86 "Hg10 mi
1:30 PM-20 °FPassing clouds.3 mph68%30.86 "HgN/A
1:00 PM-20 °FPassing clouds.3 mph68%30.89 "HgN/A
12:30 PM-22 °FPassing clouds.3 mph68%30.86 "HgN/A
12:00 PM-22 °FPassing clouds.3 mph68%30.89 "HgN/A
11:30 AM-24 °FSunny.3 mph75%30.86 "Hg10 mi
11:00 AM-27 °FSunny.3 mph61%30.86 "Hg4 mi
10:30 AM-29 °FSunny.3 mph60%30.86 "Hg6 mi
10:00 AM-31 °FClear.3 mph67%30.86 "Hg4 mi
9:30 AM-31 °FClear.3 mph67%30.86 "Hg4 mi
8:30 AM-33 °FClear.6 mph66%30.83 "Hg4 mi
8:00 AM-31 °FClear.6 mph67%30.86 "Hg4 mi
7:30 AM-31 °FIce fog.3 mph67%30.83 "Hg2 mi
7:00 AM-33 °FIce fog.3 mph66%30.83 "Hg3 mi
6:30 AM-33 °FIce fog.3 mph66%30.83 "Hg3 mi
6:00 AM-35 °FIce fog.3 mph66%30.83 "Hg3 mi
5:30 AM-33 °FIce fog.6 mph66%30.80 "Hg2 mi
5:00 AM-31 °FIce fog.3 mph67%30.80 "Hg2 mi
4:30 AM-31 °FIce fog.1 mph67%30.80 "Hg2 mi
4:00 AM-33 °FIce fog.3 mph66%30.80 "Hg2 mi
3:30 AM-31 °FClear.3 mph60%30.80 "Hg4 mi
3:00 AM-33 °FClear.1 mph66%30.80 "Hg6 mi
2:30 AM-35 °FClear.3 mph66%30.80 "Hg10 mi
2:00 AM-31 °FClear.3 mph60%30.80 "Hg10 mi
Weather by CustomWeather, © 2014

See weather overviewHow to use our weather pages